GW6166 Weather Reports


time (UTC)temp
F
wind
direction
speed
knots
gust
knots
rain 1hr
in
rain 24hr
in
rain mn
in
humidity
%
barometer
mb
20260510193008 70 278 0.9 3.5 0.01 0.11 0.02 69 1011.6
20260510191515 68 113 0.0 5.2 0.01 0.12 0.02 72 1011.8
20260510190003 68 197 0.9 6.1 0.00 0.11 0.01 64 1011.9
20260510184503 69 265 3.5 10.4 0.00 0.11 0.01 62 1011.8
20260510183005 70 96 2.6 4.3 0.00 0.12 0.01 61 1011.6
20260510181529 68 238 1.7 4.3 0.00 0.12 0.01 65 1011.9
20260510180017 67 181 0.9 3.5 0.00 0.12 0.01 69 1011.8
20260510174503 68 220 2.6 6.1 0.00 0.13 0.01 62 1011.9
20260510173004 69 205 0.9 6.1 0.00 0.14 0.01 66 1012.0
20260510171510 69 191 2.6 10.4 0.00 0.15 0.01 64 1012.2
20260510170017 69 111 0.9 4.3 0.00 0.16 0.01 67 1012.4
20260510164523 68 188 1.7 6.1 0.00 0.17 0.01 66 1012.5
20260510163004 68 219 0.9 3.5 0.00 0.17 0.01 71 1012.8
20260510161504 65 207 0.0 8.7 0.00 0.18 0.01 74 1012.8
20260510160010 64 200 0.9 7.8 0.00 0.18 0.01 75 1012.8
20260510154515 63 162 2.6 7.8 0.00 0.19 0.01 74 1013.0
20260510153019 62 350 0.9 7.0 0.00 0.19 0.01 82 1013.1
20260510151522 60 265 0.9 4.3 0.00 0.20 0.01 81 1013.3
20260510150006 59 301 2.6 7.0 0.00 0.20 0.01 81 1013.3
20260510144529 59 215 0.0 2.6 0.00 0.21 0.01 84 1013.3
20260510143027 58 259 0.9 6.1 0.00 0.21 0.01 86 1013.3
20260510141535 57 246 0.0 4.3 0.00 0.22 0.01 88 1013.2
20260510140026 56 122 0.9 3.5 0.00 0.22 0.01 90 1013.1
20260510134526 55 232 1.7 4.3 0.00 0.23 0.01 90 1013.3
20260510133026 54 205 1.7 3.5 0.00 0.23 0.01 91 1013.3
20260510131517 54 262 0.0 1.7 0.00 0.24 0.01 93 1013.3
20260510130023 53 203 0.0 3.5 0.00 0.24 0.01 93 1013.2
20260510124524 53 211 0.9 3.5 0.00 0.25 0.01 93 1013.1
20260510123009 53 203 0.0 0.9 0.00 0.26 0.01 95 1012.9
20260510121515 53 231 0.0 0.9 0.00 0.26 0.01 96 1013.0
20260510120019 53 186 0.0 0.0 0.00 0.26 0.01 96 1013.0
20260510114531 52 185 0.0 0.9 0.00 0.26 0.01 96 1013.0
20260510113027 52 113 0.0 0.9 0.00 0.26 0.01 97 1012.9
20260510111528 52 115 0.0 0.9 0.00 0.26 0.01 97 1012.8
20260510110016 51 115 0.0 1.7 0.00 0.27 0.01 97 1012.8
20260510104520 51 148 0.0 1.7 0.00 0.28 0.01 97 1012.7
20260510103025 51 110 0.0 1.7 0.00 0.30 0.01 97 1012.4
20260510101526 51 91 0.0 0.9 0.00 0.31 0.01 97 1012.4
20260510100015 51 205 0.0 1.7 0.00 0.33 0.01 97 1011.8
20260510094523 51 127 0.0 0.9 0.00 0.34 0.01 97 1011.4
20260510093031 51 164 0.0 0.0 0.00 0.35 0.01 97 1011.7
20260510091522 51 164 0.0 0.0 0.00 0.35 0.01 97 1011.6
20260510090024 51 164 0.0 0.9 0.00 0.35 0.01 97 1011.6
20260510084526 51 202 0.0 0.9 0.00 0.35 0.01 97 1012.0
20260510083018 51 198 0.0 0.0 0.00 0.35 0.01 97 1012.0
20260510081511 51 198 0.0 0.0 0.00 0.35 0.01 97 1012.0
20260510080027 51 202 0.0 0.9 0.00 0.35 0.01 97 1012.1
20260510074511 51 214 0.0 2.6 0.00 0.35 0.01 97 1012.1
20260510073014 51 227 0.0 0.9 0.00 0.35 0.01 97 1011.5
20260510071533 51 240 0.0 0.9 0.00 0.35 0.01 97 1011.4
20260510070005 51 240 0.0 0.9 0.00 0.35 0.01 97 1011.6
20260510064509 51 231 0.0 3.5 0.00 0.35 0.01 97 1011.6
20260510063013 51 287 0.0 0.9 0.00 0.35 0.01 97 1011.6
20260510061533 51 284 0.0 0.9 0.00 0.35 0.01 97 1011.5
20260510060020 51 231 0.0 0.9 0.00 0.35 0.01 97 1011.3
20260510054506 50 231 0.0 0.9 0.00 0.35 0.01 97 1011.5
20260510053009 50 100 0.0 0.9 0.00 0.35 0.01 97 1011.8
20260510051512 50 100 0.0 0.9 0.00 0.35 0.01 97 1011.3
20260510050021 49 99 0.0 0.9 0.01 0.35 0.01 96 1011.5
20260510044521 50 99 0.0 0.9 0.01 0.35 0.01 96 1011.5
20260510043013 50 118 1.7 3.5 0.01 0.35 0.01 96 1011.5
20260510041510 50 114 0.9 1.7 0.01 0.35 0.01 97 1011.9
20260510040014 50 285 0.0 0.9 0.00 0.34 0.00 96 1012.0
20260510034520 50 276 0.0 3.5 0.00 0.34 0.34 96 1011.9
20260510033023 50 289 0.0 3.5 0.00 0.34 0.34 96 1011.7
20260510031538 50 323 0.0 1.7 0.00 0.34 0.34 96 1011.6
20260510030012 50 270 0.0 0.9 0.00 0.34 0.34 96 1011.7
20260510024530 50 101 0.0 0.9 0.00 0.34 0.34 96 1011.5
20260510023030 50 101 0.0 1.7 0.00 0.34 0.34 96 1011.5
20260510021525 50 113 1.7 1.7 0.00 0.34 0.34 96 1011.8
20260510020026 50 266 0.0 1.7 0.00 0.34 0.34 96 1012.4
20260510014513 51 268 0.0 0.9 0.00 0.34 0.34 96 1012.3
20260510013017 50 262 0.0 0.9 0.00 0.34 0.34 96 1012.2
20260510011532 50 262 0.0 0.0 0.00 0.34 0.34 96 1012.0
20260510010024 50 262 0.0 1.7 0.00 0.34 0.34 96 1011.7
20260510004527 50 122 0.0 0.9 0.00 0.34 0.34 96 1011.5
20260510003022 50 151 0.0 0.9 0.00 0.34 0.34 96 1011.4
20260510001517 50 87 1.7 2.6 0.00 0.34 0.34 96 1011.4
20260510000004 49 335 0.0 1.7 0.00 0.34 0.34 95 1011.5
20260509234517 49 284 0.0 2.6 0.00 0.34 0.34 96 1011.6
20260509233017 50 15 0.9 2.6 0.00 0.34 0.34 96 1011.6
20260509231528 50 121 0.9 2.6 0.00 0.34 0.34 96 1011.5
20260509230010 50 109 0.0 2.6 0.00 0.34 0.34 96 1011.5
20260509224503 50 275 0.0 0.0 0.00 0.34 0.34 96 1011.4
20260509223007 49 275 0.0 1.7 0.01 0.34 0.34 96 1011.4
20260509221509 49 316 0.0 1.7 0.01 0.34 0.34 95 1011.5
20260509220015 49 326 1.7 3.5 0.02 0.34 0.34 95 1011.5
20260509214518 49 103 2.6 4.3 0.04 0.34 0.34 95 1011.3
20260509213006 49 132 0.9 3.5 0.03 0.33 0.33 95 1011.7
20260509211506 49 317 0.0 1.7 0.05 0.33 0.33 94 1011.8
20260509210028 48 168 0.0 0.0 0.05 0.32 0.32 94 1011.9
20260509204516 48 165 0.0 0.9 0.05 0.30 0.30 94 1012.1
20260509203023 48 108 0.0 0.0 0.05 0.30 0.30 94 1012.2
20260509201508 48 108 0.0 1.7 0.04 0.28 0.28 94 1012.5
20260509200009 48 340 0.0 0.9 0.03 0.27 0.27 94 1012.6
20260509194534 47 344 0.0 0.9 0.01 0.25 0.25 94 1012.6